| time (UTC) | temp F | wind direction | speed MPH | gust MPH | rain 1hr in | rain 24hr in | rain mn in | humidity % | barometer mb |
| 20260507014513 | 53 | 340 | 0.0 | 3.0 | 0.00 | 0.39 | 0.00 | 71 | 1011.5 |
| 20260507013009 | 54 | 354 | 2.0 | 4.0 | 0.00 | 0.39 | 0.00 | 70 | 1011.4 |
| 20260507011507 | 55 | 45 | 0.0 | 2.0 | 0.00 | 0.39 | 0.00 | 70 | 1011.4 |
| 20260507010010 | 54 | 322 | 0.0 | 3.0 | 0.00 | 0.39 | 0.00 | 71 | 1011.5 |
| 20260507004505 | 55 | 327 | 0.0 | 3.0 | 0.00 | 0.41 | 0.00 | 72 | 1011.5 |
| 20260507003004 | 55 | 224 | 0.0 | 5.0 | 0.00 | 0.41 | 0.00 | 72 | 1011.4 |
| 20260507001605 | 55 | 355 | 2.0 | 5.0 | 0.00 | 0.41 | 0.00 | 72 | 1011.4 |
| 20260507000002 | 55 | 350 | 0.0 | 3.0 | 0.00 | 0.48 | 0.00 | 72 | 1011.4 |
| 20260506234600 | 56 | 218 | 0.0 | 1.0 | 0.00 | 0.48 | 0.00 | 71 | 1011.5 |
| 20260506233100 | 56 | 345 | 0.0 | 4.0 | 0.00 | 0.48 | 0.00 | 70 | 1011.3 |
| 20260506231602 | 57 | 65 | 0.0 | 3.0 | 0.00 | 0.48 | 0.00 | 67 | 1011.4 |
| 20260506230058 | 57 | 49 | 0.0 | 0.0 | 0.00 | 0.48 | 0.00 | 70 | 1011.5 |
| 20260506224556 | 56 | 65 | 0.0 | 4.0 | 0.00 | 0.83 | 0.00 | 71 | 1011.5 |
| 20260506223055 | 56 | 96 | 0.0 | 2.0 | 0.00 | 0.83 | 0.00 | 69 | 1011.3 |
| 20260506221552 | 56 | 294 | 0.0 | 5.0 | 0.00 | 0.83 | 0.00 | 70 | 1011.2 |
| 20260506220049 | 57 | 262 | 0.0 | 3.0 | 0.00 | 0.83 | 0.00 | 68 | 1011.2 |
| 20260506214600 | 57 | 234 | 0.0 | 2.0 | 0.00 | 0.89 | 0.83 | 69 | 1011.1 |
| 20260506213047 | 57 | 274 | 0.0 | 1.0 | 0.00 | 0.89 | 0.83 | 70 | 1011.0 |
| 20260506211547 | 57 | 248 | 0.0 | 2.0 | 0.00 | 0.89 | 0.83 | 70 | 1011.0 |
| 20260506210047 | 59 | 281 | 1.0 | 5.0 | 0.00 | 0.89 | 0.83 | 66 | 1011.0 |
| 20260506204550 | 59 | 285 | 1.0 | 8.0 | 0.00 | 0.89 | 0.83 | 64 | 1010.9 |
| 20260506203046 | 59 | 258 | 0.0 | 2.0 | 0.00 | 0.89 | 0.83 | 66 | 1010.8 |
| 20260506201545 | 60 | 291 | 4.0 | 8.0 | 0.00 | 0.89 | 0.83 | 64 | 1010.6 |
| 20260506200049 | 61 | 295 | 1.0 | 4.0 | 0.00 | 0.89 | 0.83 | 62 | 1010.4 |
| 20260506194544 | 60 | 293 | 1.0 | 4.0 | 0.00 | 0.89 | 0.83 | 64 | 1010.2 |
| 20260506193043 | 60 | 304 | 2.0 | 7.0 | 0.00 | 0.89 | 0.83 | 65 | 1009.9 |
| 20260506191550 | 59 | 333 | 0.0 | 3.0 | 0.00 | 0.89 | 0.83 | 68 | 1009.7 |
| 20260506190043 | 60 | 303 | 2.0 | 5.0 | 0.00 | 0.89 | 0.83 | 66 | 1009.4 |
| 20260506184543 | 60 | 319 | 1.0 | 5.0 | 0.00 | 0.89 | 0.83 | 66 | 1009.2 |
| 20260506183048 | 61 | 235 | 1.0 | 5.0 | 0.00 | 0.89 | 0.83 | 63 | 1009.1 |
| 20260506181553 | 62 | 266 | 2.0 | 7.0 | 0.00 | 0.89 | 0.83 | 61 | 1009.1 |
| 20260506180055 | 63 | 224 | 3.0 | 12.0 | 0.00 | 0.89 | 0.83 | 59 | 1008.9 |
| 20260506174540 | 66 | 266 | 2.0 | 11.0 | 0.00 | 0.89 | 0.83 | 56 | 1008.8 |
| 20260506173042 | 66 | 290 | 4.0 | 12.0 | 0.00 | 0.89 | 0.83 | 53 | 1008.8 |
| 20260506171539 | 67 | 281 | 4.0 | 11.0 | 0.00 | 0.89 | 0.83 | 53 | 1008.7 |
| 20260506170038 | 67 | 231 | 7.0 | 14.0 | 0.00 | 0.89 | 0.83 | 51 | 1008.7 |
| 20260506164538 | 68 | 226 | 4.0 | 13.0 | 0.00 | 0.89 | 0.83 | 51 | 1008.6 |
| 20260506163038 | 68 | 231 | 5.0 | 16.0 | 0.00 | 0.89 | 0.83 | 51 | 1008.6 |
| 20260506161536 | 69 | 193 | 2.0 | 15.0 | 0.00 | 0.89 | 0.83 | 51 | 1008.4 |
| 20260506160037 | 68 | 216 | 6.0 | 19.0 | 0.00 | 0.89 | 0.83 | 51 | 1008.5 |
| 20260506154535 | 69 | 229 | 3.0 | 23.0 | 0.00 | 0.89 | 0.83 | 51 | 1008.4 |
| 20260506153034 | 68 | 188 | 6.0 | 17.0 | 0.00 | 0.89 | 0.83 | 50 | 1008.4 |
| 20260506151534 | 69 | 220 | 5.0 | 15.0 | 0.00 | 0.89 | 0.83 | 50 | 1008.4 |
| 20260506150032 | 68 | 221 | 6.0 | 16.0 | 0.00 | 0.89 | 0.83 | 49 | 1008.4 |
| 20260506144536 | 68 | 225 | 5.0 | 17.0 | 0.00 | 0.89 | 0.83 | 50 | 1008.5 |
| 20260506143031 | 68 | 250 | 9.0 | 19.0 | 0.00 | 0.89 | 0.83 | 51 | 1008.5 |
| 20260506141534 | 68 | 229 | 6.0 | 18.0 | 0.00 | 0.89 | 0.83 | 52 | 1008.6 |
| 20260506140027 | 68 | 199 | 5.0 | 14.0 | 0.00 | 0.89 | 0.83 | 52 | 1008.5 |
| 20260506134525 | 68 | 233 | 6.0 | 19.0 | 0.00 | 0.89 | 0.83 | 57 | 1008.7 |
| 20260506133024 | 68 | 152 | 5.0 | 13.0 | 0.00 | 0.89 | 0.83 | 56 | 1008.9 |
| 20260506131525 | 67 | 236 | 6.0 | 15.0 | 0.00 | 0.89 | 0.83 | 56 | 1009.1 |
| 20260506130021 | 68 | 247 | 6.0 | 14.0 | 0.00 | 0.89 | 0.83 | 56 | 1009.0 |
| 20260506124518 | 67 | 264 | 4.0 | 10.0 | 0.00 | 0.89 | 0.83 | 62 | 1009.2 |
| 20260506123016 | 66 | 243 | 3.0 | 10.0 | 0.00 | 0.89 | 0.83 | 73 | 1009.3 |
| 20260506121513 | 64 | 290 | 4.0 | 16.0 | 0.00 | 0.89 | 0.83 | 73 | 1009.5 |
| 20260506120022 | 64 | 63 | 3.0 | 13.0 | 0.00 | 0.89 | 0.83 | 74 | 1009.7 |
| 20260506114512 | 65 | 141 | 5.0 | 12.0 | 0.00 | 0.89 | 0.83 | 75 | 1009.7 |
| 20260506113011 | 65 | 221 | 5.0 | 14.0 | 0.00 | 0.89 | 0.83 | 70 | 1009.8 |
| 20260506111508 | 64 | 245 | 6.0 | 11.0 | 0.00 | 0.89 | 0.83 | 73 | 1010.1 |
| 20260506110006 | 64 | 305 | 2.0 | 15.0 | 0.00 | 0.89 | 0.83 | 75 | 1010.1 |
| 20260506104505 | 64 | 238 | 3.0 | 10.0 | 0.00 | 0.89 | 0.83 | 75 | 1010.3 |
| 20260506103003 | 63 | 255 | 2.0 | 11.0 | 0.00 | 0.89 | 0.83 | 76 | 1010.2 |
| 20260506101502 | 63 | 219 | 3.0 | 9.0 | 0.00 | 0.89 | 0.83 | 78 | 1010.3 |
| 20260506100106 | 62 | 245 | 2.0 | 9.0 | 0.00 | 0.89 | 0.83 | 78 | 1010.3 |
| 20260506094613 | 62 | 251 | 1.0 | 7.0 | 0.00 | 0.91 | 0.83 | 78 | 1010.4 |
| 20260506093059 | 62 | 250 | 4.0 | 9.0 | 0.00 | 0.91 | 0.83 | 77 | 1010.3 |
| 20260506091556 | 62 | 243 | 5.0 | 12.0 | 0.00 | 0.91 | 0.83 | 78 | 1010.4 |
| 20260506090053 | 61 | 299 | 2.0 | 8.0 | 0.00 | 0.91 | 0.83 | 84 | 1010.2 |
| 20260506084556 | 61 | 281 | 3.0 | 8.0 | 0.00 | 1.03 | 0.83 | 84 | 1010.1 |
| 20260506083056 | 60 | 279 | 0.0 | 5.0 | 0.00 | 1.03 | 0.83 | 88 | 1010.2 |
| 20260506081547 | 59 | 210 | 1.0 | 6.0 | 0.00 | 1.03 | 0.83 | 87 | 1010.2 |
| 20260506073044 | 56 | 217 | 0.0 | 1.0 | 0.01 | 1.03 | 0.83 | 94 | 1010.2 |
| 20260506071538 | 56 | 115 | 0.0 | 1.0 | 0.04 | 1.03 | 0.83 | 95 | 1010.1 |
| 20260506061535 | 54 | 354 | 2.0 | 4.0 | 0.00 | 0.99 | 0.80 | 94 | 1009.9 |
| 20260506044539 | 53 | 347 | 4.0 | 9.0 | 0.00 | 1.13 | 0.80 | 91 | 1008.9 |
| 20260506043030 | 53 | 67 | 0.0 | 6.0 | 0.00 | 1.13 | 0.80 | 93 | 1009.0 |
| 20260506041539 | 53 | 271 | 0.0 | 8.0 | 0.01 | 1.13 | 0.80 | 92 | 1009.2 |
| 20260506040032 | 53 | 325 | 5.0 | 12.0 | 0.09 | 1.13 | 0.80 | 93 | 1009.1 |
| 20260506034531 | 52 | 25 | 3.0 | 12.0 | 0.11 | 1.13 | 0.80 | 95 | 1009.1 |
| 20260506033026 | 52 | 347 | 1.0 | 3.0 | 0.17 | 1.13 | 0.80 | 96 | 1009.4 |
| 20260506031525 | 52 | 11 | 2.0 | 4.0 | 0.24 | 1.12 | 0.78 | 95 | 1009.7 |
| 20260506030023 | 52 | 9 | 0.0 | 0.0 | 0.22 | 1.04 | 0.69 | 94 | 1010.1 |
| 20260506024527 | 52 | 52 | 0.0 | 4.0 | 0.24 | 1.03 | 0.69 | 94 | 1010.0 |
| 20260506023024 | 52 | 16 | 5.0 | 9.0 | 0.17 | 0.97 | 0.62 | 93 | 1010.1 |
| 20260506021521 | 53 | 302 | 1.0 | 4.0 | 0.09 | 0.89 | 0.54 | 91 | 1010.3 |
| 20260506020020 | 54 | 5 | 3.0 | 13.0 | 0.02 | 0.81 | 0.46 | 87 | 1009.6 |